Estación municipal de Les Masies de Roda (Osona, Ter)

Consulta los datos en tiempo real de la estación municipal de Les Masies de Roda





Hora UTC 03:00
Temperatura 17.9 ºC
Suelo 15 cm 15.6 ºC
Humedad 90.5 %
Presión 1021.5 hPa
Pluja 0.0 mm
Velocidad viento 0.0 km/h
Dirección viento NNE
Radiación solar 258.1 W/m²

Datos diarios 2026-09-05



Hora UTC (invierno +1h; verano +2h)
Temperatura (ºC) Humedad (%) Presión (hPa) Velocidad viento (km/h) Precipitación (mm) Radiación solar (W/m²)
Hora UTC Aire Suelo 15 cm Humedad Presión Vel. Dir. Vel. Max Dir. Intent. máx 5 min. Rad. Sol.
00:05 20.1 17.5 83.1 1021.4 0.0 NNE 0.0 NNW 0.0 19.2
00:10 20.1 17.3 83.9 1021.6 0.0 NNE 0.0 NNW 0.0 19.1
00:15 20.2 17.2 83.1 1021.4 1.1 E 3.9 E 0.0 17.4
00:20 19.9 17.1 83.7 1021.6 0.0 NNE 0.0 E 0.0 17.4
00:25 19.8 17.1 84.5 1021.5 0.0 NNE 0.0 E 0.0 17.2
00:30 19.8 17.0 84.4 1021.4 0.9 ENE 3.2 E 0.0 18.6
00:35 19.8 16.9 83.8 1021.5 0.8 ENE 2.8 ENE 0.0 16.1
00:40 19.7 16.9 83.8 1021.4 0.1 ENE 1.8 ENE 0.0 15.6
00:45 19.6 16.8 84.9 1021.5 0.5 ENE 2.8 ENE 0.0 12.9
00:50 19.5 16.8 84.3 1021.3 1.7 N 2.8 NNW 0.0 13.7
00:55 19.5 16.7 85.1 1021.5 0.2 N 1.8 N 0.0 14.1
01:00 19.7 16.7 83.7 1021.4 0.0 NNE 0.0 N 0.0 13.9
01:05 19.5 16.6 84.2 1021.5 0.0 NNE 0.0 N 0.0 16.0
01:10 19.2 16.5 86.0 1021.5 1.1 NNW 2.5 NW 0.0 16.8
01:15 19.3 16.5 85.9 1021.4 0.0 NNE 0.0 NNE 0.0 16.1
01:20 19.2 16.5 85.6 1021.6 0.0 NNE 0.0 N 0.0 15.9
01:25 19.1 16.4 85.5 1021.4 0.0 NNE 0.0 N 0.0 14.5
01:30 18.9 16.3 86.6 1021.6 0.0 NNE 0.0 N 0.0 12.7
01:35 18.8 16.2 86.4 1021.4 0.0 NNE 0.0 N 0.0 11.0
01:40 18.7 16.2 87.3 1021.7 0.0 NNE 0.0 N 0.0 8.3
01:45 18.7 16.1 87.3 1021.4 0.0 NNE 0.0 N 0.0 6.8
01:50 18.7 16.1 86.8 1021.6 0.0 NNE 0.0 N 0.0 6.2
01:55 18.6 16.0 86.1 1021.5 0.0 NNE 0.0 ENE 0.0 5.7
02:00 18.4 15.9 87.5 1021.6 0.0 NNE 0.0 N 0.0 2.9
02:05 18.3 15.8 88.1 1021.6 0.0 NNE 0.0 N 0.0 0.9
02:10 18.2 15.7 88.5 1021.6 0.0 NNE 0.0 N 0.0 0.2
02:15 18.1 15.7 88.7 1021.6 1.4 ENE 2.8 ENE 0.0 0.3
02:20 18.2 15.6 88.9 1021.4 0.8 NE 2.8 NNE 0.0 0.1
02:25 18.1 15.7 88.5 1021.6 0.1 NE 1.8 NE 0.0 0.1
02:30 18.0 15.6 89.1 1021.4 0.6 NW 2.5 NW 0.0 0.1
02:35 18.0 15.6 89.7 1021.6 0.1 NW 1.4 NW 0.0 0.1
02:40 18.1 15.5 89.5 1021.4 0.0 NNE 0.0 NW 0.0 0.1
02:45 18.2 15.5 89.6 1021.6 0.0 NNE 0.0 NW 0.0 192.2
02:50 18.1 15.6 88.6 1021.4 0.0 NNE 0.0 NW 0.0 230.4
02:55 18.0 15.6 89.3 1021.6 0.0 NNE 0.0 NW 0.0 234.9
03:00 17.9 15.6 90.5 1021.5 0.0 NNE 0.0 NW 0.0 258.1
Máxima 20.2 17.5 90.5 1021.7 1.7 N 3.9 E 0.0 258.1
Mínima 17.9 15.5 83.1 1021.3
Total 0.0